Location: *
(45.9500°N, 9.0833°E)
Time: 05:13:43
(UTC+00:00)

SPOT 3 Rocket - Pass Details

Date: 03 March 2021
Orbit: 778 x 795 km, 98.7° (Epoch: 18 April)

Event Time Altitude Azimuth Distance (km) Brightness Sun altitude
Exits shadow 20:18:42 49° 314° (NW) 1,020 4.3 -32.2°
Drops below altitude 10° 20:22:40 10° 340° (NNW) 2,373 6.5 -32.8°
Sets 20:25:02 0° 344° (NNW) 3,308 7.4 -33.2°
